DL5ARK Weather Reports


Display with metric or nautical units.
time (UTC)temp
F
wind
direction
speed
MPH
gust
MPH
rain 1hr
in
rain 24hr
in
rain mn
in
humidity
%
barometer
mb
20260505124847 73 90 6.0 6.0 0.00 0.00 0.00 50 993.9
20260505124550 74 90 8.0 8.0 0.00 0.00 0.00 50 993.9
20260505124247 75 90 6.0 6.0 0.00 0.00 0.00 49 993.9
20260505123948 76 90 6.0 6.0 0.00 0.00 0.00 53 993.9
20260505123647 75 45 1.0 1.0 0.00 0.00 0.00 54 993.9
20260505123347 74 22 7.0 7.0 0.00 0.00 0.00 54 993.9
20260505123050 73 0 1.0 1.0 0.00 0.00 0.00 54 993.9
20260505122748 72 90 2.0 2.0 0.00 0.00 0.00 53 993.9
20260505122448 72 90 8.0 8.0 0.00 0.00 0.00 52 993.9
20260505122147 72 90 3.0 3.0 0.00 0.00 0.00 54 993.9
20260505121850 71 45 1.0 1.0 0.00 0.00 0.00 55 993.9
20260505121547 71 22 1.0 1.0 0.00 0.00 0.00 54 993.9
20260505121248 72 0 0.0 0.0 0.00 0.00 0.00 54 993.9
20260505120947 72 90 7.0 7.0 0.00 0.00 0.00 53 994.1
20260505120648 71 45 0.0 0.0 0.00 0.00 0.00 52 994.1
20260505120350 71 67 1.0 1.0 0.00 0.00 0.00 52 994.1
20260505120047 71 67 0.0 0.0 0.00 0.00 0.00 52 994.1
20260505115747 72 0 5.0 5.0 0.00 0.00 0.00 51 994.4
20260505115447 73 337 4.0 4.0 0.00 0.00 0.00 51 994.1
20260505115148 73 337 10.0 10.0 0.00 0.00 0.00 49 994.1
20260505114847 73 45 2.0 2.0 0.00 0.00 0.00 50 994.1
20260505114550 72 22 4.0 4.0 0.00 0.00 0.00 47 993.9
20260505114247 72 0 6.0 6.0 0.00 0.00 0.00 47 994.1
20260505113947 74 0 5.0 5.0 0.00 0.00 0.00 48 994.1
20260505113647 74 270 0.0 0.0 0.00 0.00 0.00 46 994.1
20260505113348 73 315 2.0 2.0 0.00 0.00 0.00 45 994.4
20260505113047 72 22 1.0 1.0 0.00 0.00 0.00 45 994.4
20260505112748 74 0 0.0 0.0 0.00 0.00 0.00 46 994.4
20260505112447 75 337 0.0 0.0 0.00 0.00 0.00 47 994.4
20260505112148 74 270 3.0 4.0 0.00 0.00 0.00 46 994.4
20260505111847 72 337 3.0 3.0 0.00 0.00 0.00 45 994.4
20260505111550 73 337 0.0 0.0 0.00 0.00 0.00 47 994.4
20260505111247 71 0 3.0 3.0 0.00 0.00 0.00 46 994.6
20260505110947 73 0 7.0 7.0 0.00 0.00 0.00 49 994.4
20260505110648 73 225 0.0 0.0 0.00 0.00 0.00 49 994.4
20260505110350 72 180 0.0 0.0 0.00 0.00 0.00 50 994.6
20260505102147 70 315 3.0 3.0 0.00 0.00 0.00 52 995.1
20260505101848 71 225 0.0 0.0 0.00 0.00 0.00 54 995.1
20260505101547 70 90 0.0 0.0 0.00 0.00 0.00 52 995.3
20260505100947 69 337 0.0 0.0 0.00 0.00 0.00 55 995.3
20260505100647 69 270 0.0 0.0 0.00 0.00 0.00 53 995.3
20260505100348 71 45 0.0 0.0 0.00 0.00 0.00 61 995.1
20260505100047 70 135 0.0 0.0 0.00 0.00 0.00 60 995.3
20260505095448 70 22 0.0 0.0 0.00 0.00 0.00 64 995.6
20260505095147 69 90 0.0 0.0 0.00 0.00 0.00 65 995.3
20260505094847 69 315 0.0 0.0 0.00 0.00 0.00 66 995.3
20260505094547 68 0 0.0 0.0 0.00 0.00 0.00 66 995.3
20260505094248 67 0 3.0 3.0 0.00 0.00 0.00 67 995.3
20260505093947 67 0 4.0 4.0 0.00 0.00 0.00 67 995.6
20260505093647 67 22 0.0 0.0 0.00 0.00 0.00 67 995.6
20260505093347 68 0 0.0 0.0 0.00 0.00 0.00 68 995.6
20260505093047 67 337 0.0 0.0 0.00 0.00 0.00 68 995.6
20260505092448 67 0 0.0 0.0 0.00 0.00 0.00 67 995.8
20260505092147 67 0 0.0 0.0 0.00 0.00 0.00 67 995.8
20260505091848 67 22 0.0 0.0 0.00 0.00 0.00 67 995.8
20260505091548 66 90 3.0 3.0 0.00 0.00 0.00 67 995.8
20260505091247 66 22 0.0 0.0 0.00 0.00 0.00 68 995.8
20260505090947 66 0 1.0 1.0 0.00 0.00 0.00 68 995.8
20260505090647 66 0 0.0 0.0 0.00 0.00 0.00 67 995.8
20260505090348 67 135 0.0 0.0 0.00 0.00 0.00 68 995.8
20260505090047 68 315 2.0 2.0 0.00 0.00 0.00 69 995.8
20260505085746 67 22 0.0 0.0 0.00 0.00 0.00 70 995.8
20260505085450 67 67 0.0 0.0 0.00 0.00 0.00 70 996.1
20260505085148 66 22 0.0 0.0 0.00 0.00 0.00 70 996.1
20260505084847 66 337 0.0 0.0 0.00 0.00 0.00 71 996.1
20260505084548 65 0 0.0 0.0 0.00 0.00 0.00 72 996.1
20260505084247 64 0 0.0 0.0 0.00 0.00 0.00 71 996.1
20260505083948 64 90 0.0 0.0 0.00 0.00 0.00 72 996.1
20260505083348 63 0 0.0 0.0 0.00 0.00 0.00 72 996.3
20260505083048 63 22 0.0 0.0 0.00 0.00 0.00 71 996.3
20260505082747 63 337 0.0 0.0 0.00 0.00 0.00 71 996.3
20260505082447 63 292 0.0 0.0 0.00 0.00 0.00 71 996.3
20260505082147 63 112 0.0 0.0 0.00 0.00 0.00 72 996.3
20260505081847 62 112 0.0 0.0 0.00 0.00 0.00 72 996.3
20260505081548 62 135 0.0 0.0 0.00 0.00 0.00 71 996.3
20260505081247 63 135 0.0 0.0 0.00 0.00 0.00 71 996.3
20260505080947 63 337 0.0 0.0 0.00 0.00 0.00 71 996.3
20260505080648 63 270 0.0 0.0 0.00 0.00 0.00 71 996.3
20260505080048 64 270 0.0 0.0 0.00 0.00 0.00 71 996.3
20260505075748 64 270 0.0 0.0 0.00 0.00 0.00 71 996.3
20260505075448 64 292 0.0 0.0 0.00 0.00 0.00 71 996.3
20260505075148 63 135 0.0 0.0 0.00 0.00 0.00 71 996.3
20260505074848 63 90 0.0 0.0 0.00 0.00 0.00 71 996.3
20260505074247 64 0 0.0 0.0 0.00 0.00 0.00 72 996.3
20260505073948 63 0 0.0 0.0 0.00 0.00 0.00 72 996.3
20260505073647 63 45 0.0 0.0 0.00 0.00 0.00 73 996.3
20260505073348 63 22 0.0 0.0 0.00 0.00 0.00 73 996.3
20260505073047 63 0 0.0 0.0 0.00 0.00 0.00 73 996.3
20260505072750 62 337 0.0 0.0 0.00 0.00 0.00 73 996.3
20260505072447 63 0 0.0 0.0 0.00 0.00 0.00 73 996.3
20260505072148 63 180 0.0 0.0 0.00 0.00 0.00 73 996.3
20260505071847 62 315 0.0 0.0 0.00 0.00 0.00 74 996.3
20260505071547 62 315 0.0 0.0 0.00 0.00 0.00 74 996.3
20260505071248 62 337 0.0 0.0 0.00 0.00 0.00 74 996.3
20260505070947 62 270 0.0 0.0 0.00 0.00 0.00 74 996.3
20260505070648 62 337 0.0 0.0 0.00 0.00 0.00 75 996.3
20260505070348 62 180 0.0 0.0 0.00 0.00 0.00 76 996.3
20260505070047 62 270 0.0 0.0 0.00 0.00 0.00 76 996.3
20260505065747 61 270 0.0 0.0 0.00 0.00 0.00 76 996.3
20260505065450 61 180 0.0 0.0 0.00 0.00 0.00 76 996.3
20260505065148 61 225 0.0 0.0 0.00 0.00 0.00 77 996.3
20260505064847 61 337 0.0 0.0 0.00 0.00 0.00 77 996.3
20260505064547 61 337 0.0 0.0 0.00 0.00 0.00 77 996.3
20260505064247 61 337 0.0 0.0 0.00 0.00 0.00 77 996.3
20260505063948 61 225 0.0 0.0 0.00 0.00 0.00 76 996.3
20260505063647 61 180 0.0 0.0 0.00 0.00 0.00 76 996.3
20260505063347 61 202 0.0 0.0 0.00 0.00 0.00 76 996.3
20260505063046 60 112 0.0 0.0 0.00 0.00 0.00 76 996.1
20260505062747 60 315 0.0 0.0 0.00 0.00 0.00 76 996.1
20260505062147 60 180 0.0 0.0 0.00 0.00 0.00 76 996.3
20260505061847 60 135 0.0 0.0 0.00 0.00 0.00 77 996.3
20260505061548 59 292 0.0 0.0 0.00 0.00 0.00 77 996.3
20260505061248 59 90 0.0 0.0 0.00 0.00 0.00 77 996.3
20260505060947 59 202 0.0 0.0 0.00 0.00 0.00 77 996.3
20260505060650 59 337 0.0 0.0 0.00 0.00 0.00 78 996.3
20260505060347 59 225 0.0 0.0 0.00 0.00 0.00 77 996.3
20260505060048 59 270 0.0 0.0 0.00 0.00 0.00 78 996.3
20260505055747 58 270 0.0 0.0 0.00 0.00 0.00 78 996.3
20260505055448 58 225 0.0 0.0 0.00 0.00 0.00 78 996.3
20260505055147 57 202 0.0 0.0 0.00 0.00 0.00 78 996.3
20260505054547 57 337 0.0 0.0 0.00 0.00 0.00 77 996.1
20260505054247 57 292 0.0 0.0 0.00 0.00 0.00 77 996.3
20260505053947 57 225 0.0 0.0 0.00 0.00 0.00 77 996.1
20260505053647 57 337 0.0 0.0 0.00 0.00 0.00 77 996.1
20260505053048 57 337 0.0 0.0 0.00 0.00 0.00 76 996.1
20260505052746 57 225 0.0 0.0 0.00 0.00 0.00 76 996.1
20260505052448 57 225 0.0 0.0 0.00 0.00 0.00 76 996.1
20260505052147 57 315 0.0 0.0 0.00 0.00 0.00 76 995.8
20260505051850 57 337 0.0 0.0 0.00 0.00 0.00 76 995.8
20260505051548 57 135 0.0 0.0 0.00 0.00 0.00 77 995.8
20260505051247 57 225 0.0 0.0 0.00 0.00 0.00 76 996.1
20260505050948 57 337 0.0 0.0 0.00 0.00 0.00 77 995.8
20260505050647 57 112 0.0 0.0 0.00 0.00 0.00 76 995.8
20260505050347 56 337 0.0 0.0 0.00 0.00 0.00 77 995.8
20260505041548 56 315 0.0 0.0 0.00 0.00 0.00 77 996.3
20260505041248 56 315 0.0 0.0 0.00 0.00 0.00 76 996.3
20260505040947 55 45 0.0 0.0 0.00 0.00 0.00 77 996.3
20260505040647 55 45 0.0 0.0 0.00 0.00 0.00 77 996.3
20260505040348 55 45 0.0 0.0 0.00 0.00 0.00 77 996.3
20260505040048 56 337 0.0 0.0 0.00 0.00 0.00 77 996.3
20260505035748 55 112 0.0 0.0 0.00 0.00 0.00 76 996.3
20260505035148 55 90 0.0 0.0 0.00 0.00 0.00 77 996.3
20260505034847 55 90 0.0 0.0 0.00 0.00 0.00 76 996.3
20260505034548 55 292 0.0 0.0 0.00 0.00 0.00 76 996.6
20260505034248 55 45 0.0 0.0 0.00 0.00 0.00 76 996.8
20260505033948 55 0 0.0 0.0 0.00 0.00 0.00 76 996.6
20260505033650 55 315 0.0 0.0 0.00 0.00 0.00 75 996.6
20260505033346 55 315 0.0 0.0 0.00 0.00 0.00 75 996.8
20260505033048 55 135 0.0 0.0 0.00 0.00 0.00 75 996.8
20260505032748 55 112 0.0 0.0 0.00 0.00 0.00 75 996.8
20260505032447 55 90 0.0 0.0 0.00 0.00 0.00 75 997.1
20260505032147 56 270 0.0 0.0 0.00 0.00 0.00 75 997.1
20260505031847 56 270 0.0 0.0 0.00 0.00 0.00 75 997.1
20260505031547 56 270 0.0 0.0 0.00 0.00 0.00 75 997.1
20260505031247 56 337 1.0 1.0 0.00 0.00 0.00 75 997.3
20260505030948 55 292 0.0 0.0 0.00 0.00 0.00 75 997.3
20260505030648 55 337 0.0 0.0 0.00 0.00 0.00 76 997.3
20260505030350 55 337 0.0 0.0 0.00 0.00 0.00 76 997.3
20260505030047 55 337 0.0 0.0 0.00 0.00 0.00 76 997.3
20260505025748 55 0 0.0 0.0 0.00 0.00 0.00 76 997.6
20260505025448 55 22 0.0 0.0 0.00 0.00 0.00 76 997.6
20260505025147 55 67 0.0 0.0 0.00 0.00 0.00 76 997.6
20260505024847 55 90 1.0 1.0 0.00 0.00 0.00 76 997.8
20260505024248 55 90 0.0 0.0 0.00 0.00 0.00 75 998.1
20260505023948 55 90 0.0 0.0 0.00 0.00 0.00 75 998.1
20260505023647 55 112 0.0 0.0 0.00 0.00 0.00 74 998.3
20260505023347 55 180 0.0 0.0 0.00 0.00 0.00 74 998.3
20260505023047 56 180 0.0 0.0 0.00 0.00 0.00 73 998.3
20260505022448 56 180 0.0 0.0 0.00 0.00 0.00 73 998.3
20260505022147 56 180 0.0 0.0 0.00 0.00 0.00 73 998.3
20260505021847 56 337 0.0 0.0 0.00 0.00 0.00 73 998.3
20260505021547 56 180 0.0 0.0 0.00 0.00 0.00 72 998.3
20260505021247 56 180 0.0 0.0 0.00 0.00 0.00 72 998.3
20260505020950 56 90 0.0 0.0 0.00 0.00 0.00 72 998.3
20260505020648 56 90 0.0 0.0 0.00 0.00 0.00 72 998.1
20260505020346 56 67 0.0 0.0 0.00 0.00 0.00 71 998.1
20260505020047 56 67 0.0 0.0 0.00 0.00 0.00 71 998.3
20260505015747 56 337 0.0 0.0 0.00 0.00 0.00 71 998.3
20260505015447 57 67 0.0 0.0 0.00 0.00 0.00 71 998.3
20260505015150 56 90 0.0 0.0 0.00 0.00 0.00 71 998.1
20260505014847 57 337 0.0 0.0 0.00 0.00 0.00 70 998.3
20260505014547 57 90 0.0 0.0 0.00 0.00 0.00 70 998.3
20260505014247 57 90 0.0 0.0 0.00 0.00 0.00 70 998.1
20260505013948 57 90 0.0 0.0 0.00 0.00 0.00 70 998.3
20260505013347 57 90 0.0 0.0 0.00 0.00 0.00 69 998.3
20260505013046 57 90 0.0 0.0 0.00 0.00 0.00 68 998.3
20260505012746 57 0 0.0 0.0 0.00 0.00 0.00 68 998.3
20260505012448 58 0 0.0 0.0 0.00 0.00 0.00 68 998.3
20260505012147 58 292 0.0 0.0 0.00 0.00 0.00 67 998.3
20260505011847 58 225 0.0 0.0 0.00 0.00 0.00 67 998.3
20260505011548 58 45 0.0 0.0 0.00 0.00 0.00 67 998.3
20260505011248 58 202 0.0 0.0 0.00 0.00 0.00 67 998.3
20260505010947 58 337 0.0 0.0 0.00 0.00 0.00 66 998.1
20260505010648 58 180 0.0 0.0 0.00 0.00 0.00 66 998.1
20260505010350 58 202 2.0 2.0 0.00 0.00 0.00 66 998.1
20260505010047 58 135 0.0 0.0 0.00 0.00 0.00 66 998.1
20260505005747 58 337 0.0 0.0 0.00 0.00 0.00 65 997.8
20260505005447 59 202 0.0 0.0 0.00 0.00 0.00 65 998.1
20260505005148 59 337 0.0 0.0 0.00 0.00 0.00 65 998.1
20260505004847 59 0 0.0 0.0 0.00 0.00 0.00 65 998.1
20260505004550 59 45 0.0 0.0 0.00 0.00 0.00 65 998.1
20260505004247 59 90 0.0 0.0 0.00 0.00 0.00 65 998.1
20260505003947 59 315 0.0 0.0 0.00 0.00 0.00 65 997.8
20260505003647 59 337 0.0 0.0 0.00 0.00 0.00 65 997.8
20260505003348 59 45 0.0 0.0 0.00 0.00 0.00 65 997.8
20260505003048 59 292 0.0 0.0 0.00 0.00 0.00 65 997.8
20260505002448 59 337 0.0 0.0 0.00 0.00 0.00 65 997.8
20260505002148 59 90 5.0 5.0 0.00 0.00 0.00 65 997.8
20260505001847 59 45 2.0 2.0 0.00 0.00 0.00 65 997.8
20260505001548 59 90 3.0 3.0 0.00 0.00 0.00 65 997.8
20260505001247 59 45 4.0 4.0 0.00 0.00 0.00 65 997.8
20260505000947 59 337 1.0 1.0 0.00 0.00 0.00 65 997.8
20260505000647 59 45 0.0 0.0 0.00 0.00 0.00 65 997.8
20260505000347 59 90 0.0 0.0 0.00 0.00 0.00 65 997.8
20260505000047 59 45 0.0 0.0 0.00 0.00 0.00 65 998.1
20260504235747 59 45 1.0 1.0 0.00 0.00 0.00 65 998.1
20260504235450 59 337 2.0 2.0 0.00 0.00 0.00 65 998.1
20260504235147 59 45 0.0 0.0 0.00 0.00 0.00 65 998.1
20260504234847 59 45 0.0 0.0 0.00 0.00 0.00 64 998.1
20260504234547 59 0 2.0 2.0 0.00 0.00 0.00 65 998.1
20260504234248 59 22 0.0 0.0 0.00 0.00 0.00 65 998.3
20260504233947 59 22 0.0 0.0 0.00 0.00 0.00 65 998.3
20260504233650 59 0 0.0 0.0 0.00 0.00 0.00 65 998.3
20260504233347 59 45 2.0 2.0 0.00 0.00 0.00 64 998.3
20260504233047 60 337 0.0 0.0 0.00 0.00 0.00 64 998.3
20260504232748 60 0 0.0 0.0 0.00 0.00 0.00 63 998.3
20260504232447 60 67 0.0 0.0 0.00 0.00 0.00 64 998.3
20260504232146 60 0 0.0 0.0 0.00 0.00 0.00 63 998.3
20260504231850 60 0 0.0 0.0 0.00 0.00 0.00 63 998.3
20260504231548 60 45 0.0 0.0 0.00 0.00 0.00 63 998.6
20260504231248 60 90 0.0 0.0 0.00 0.00 0.00 63 998.8
20260504230946 60 67 0.0 0.0 0.00 0.00 0.00 63 998.8
20260504230648 60 0 0.0 0.0 0.00 0.00 0.00 63 998.8
20260504230350 60 337 0.0 0.0 0.00 0.00 0.00 63 998.8
20260504230048 60 22 2.0 2.0 0.00 0.00 0.00 62 998.8
20260504225747 60 337 0.0 0.0 0.00 0.00 0.00 63 998.8
20260504225447 60 315 0.0 0.0 0.00 0.00 0.00 63 998.8
20260504225147 60 225 0.0 0.0 0.00 0.00 0.00 63 998.8
20260504224848 60 0 0.0 0.0 0.00 0.00 0.00 63 999.1
20260504224247 60 337 0.0 0.0 0.00 0.00 0.00 63 999.1
20260504223947 60 67 0.0 0.0 0.00 0.00 0.00 63 999.1
20260504223646 60 90 0.0 0.0 0.00 0.00 0.00 63 999.1
20260504223047 60 337 0.0 0.0 0.00 0.00 0.00 63 999.1
20260504222747 61 90 0.0 0.0 0.00 0.00 0.00 63 999.1
20260504222447 61 337 0.0 0.0 0.00 0.00 0.00 63 999.1
20260504222146 61 45 0.0 0.0 0.00 0.00 0.00 63 999.1
20260504221848 61 337 1.0 1.0 0.00 0.00 0.00 63 999.1
20260504221248 61 45 0.0 0.0 0.00 0.00 0.00 62 999.1
20260504220947 60 337 0.0 0.0 0.00 0.00 0.00 62 999.3
20260504220647 61 292 0.0 0.0 0.00 0.00 0.00 63 999.3
20260504220348 61 0 0.0 0.0 0.00 0.00 0.00 62 999.3
20260504220047 60 67 0.0 0.0 0.00 0.00 0.00 63 999.3
20260504215446 61 22 0.0 0.0 0.00 0.00 0.00 62 999.3
20260504215148 61 67 0.0 0.0 0.00 0.00 0.00 63 999.3
20260504214847 61 45 0.0 0.0 0.00 0.00 0.00 62 999.3
20260504214547 61 90 0.0 0.0 0.00 0.00 0.00 62 999.3
20260504214248 61 45 0.0 0.0 0.00 0.00 0.00 63 999.3
20260504213947 61 45 2.0 2.0 0.00 0.00 0.00 63 999.3
20260504213648 61 22 4.0 4.0 0.00 0.00 0.00 63 999.3
20260504213348 61 67 0.0 0.0 0.00 0.00 0.00 63 999.3
20260504213047 61 45 0.0 0.0 0.00 0.00 0.00 63 999.3
20260504212747 61 45 0.0 0.0 0.00 0.00 0.00 63 999.3
20260504212450 61 22 0.0 0.0 0.00 0.00 0.00 63 999.3
20260504212147 61 22 1.0 1.0 0.00 0.00 0.00 63 999.3
20260504211847 61 45 0.0 0.0 0.00 0.00 0.00 63 999.3
20260504211547 61 67 2.0 2.0 0.00 0.00 0.00 64 999.3
20260504211246 61 22 6.0 6.0 0.00 0.00 0.00 64 999.3
20260504210948 61 67 1.0 1.0 0.00 0.00 0.00 64 999.3
20260504210347 61 67 1.0 1.0 0.00 0.00 0.00 64 999.3
20260504210046 61 0 1.0 1.0 0.00 0.00 0.00 64 999.3
20260504205748 61 45 1.0 1.0 0.00 0.00 0.00 64 999.3
20260504205448 61 22 0.0 0.0 0.00 0.00 0.00 64 999.3
20260504205148 61 45 1.0 1.0 0.00 0.00 0.00 64 999.3
20260504204848 61 45 0.0 0.0 0.00 0.00 0.00 64 999.3
20260504204548 61 22 0.0 0.0 0.00 0.00 0.00 64 999.3
20260504204248 61 67 0.0 0.0 0.00 0.00 0.00 63 999.3
20260504203947 61 22 0.0 0.0 0.00 0.00 0.00 63 999.3
20260504203648 61 0 0.0 0.0 0.00 0.00 0.00 63 999.3
20260504203047 61 67 0.0 0.0 0.00 0.00 0.00 63 999.3
20260504202748 62 22 0.0 0.0 0.00 0.00 0.00 63 999.3
20260504202448 62 45 0.0 0.0 0.00 0.00 0.00 63 999.3
20260504202146 62 22 1.0 1.0 0.00 0.00 0.00 62 999.3
20260504201847 62 45 0.0 0.0 0.00 0.00 0.00 62 999.3
20260504201248 62 45 0.0 0.0 0.00 0.00 0.00 62 999.3
20260504200947 62 337 0.0 0.0 0.00 0.00 0.00 62 999.3
20260504200648 62 22 2.0 2.0 0.00 0.00 0.00 62 999.3
20260504200348 62 337 0.0 0.0 0.00 0.00 0.00 62 999.3
20260504200047 62 45 0.0 0.0 0.00 0.00 0.00 61 999.5
20260504195748 62 45 0.0 0.0 0.00 0.00 0.00 62 999.5
20260504195450 63 0 1.0 2.0 0.00 0.00 0.00 61 999.3
20260504195147 63 22 0.0 0.0 0.00 0.00 0.00 61 999.5
20260504194848 63 0 0.0 0.0 0.00 0.00 0.00 61 999.5
20260504194547 63 315 0.0 0.0 0.00 0.00 0.00 60 999.5
20260504194248 63 337 0.0 0.0 0.00 0.00 0.00 60 999.8
20260504193946 63 45 0.0 0.0 0.00 0.00 0.00 60 999.5
20260504193348 63 337 0.0 0.0 0.00 0.00 0.00 59 999.5
20260504193048 63 45 0.0 0.0 0.00 0.00 0.00 59 999.5
20260504192448 63 0 0.0 0.0 0.00 0.00 0.00 58 999.5
20260504192147 63 337 0.0 0.0 0.00 0.00 0.00 57 999.5
20260504191847 63 337 0.0 0.0 0.00 0.00 0.00 57 999.5
20260504191550 63 67 0.0 0.0 0.00 0.00 0.00 56 999.5
20260504191248 63 337 0.0 0.0 0.00 0.00 0.00 57 999.3
20260504190948 63 22 0.0 0.0 0.00 0.00 0.00 57 999.5
20260504190648 63 45 0.0 0.0 0.00 0.00 0.00 56 999.5
20260504190347 63 135 0.0 0.0 0.00 0.00 0.00 56 999.3
20260504190047 63 90 0.0 0.0 0.00 0.00 0.00 57 999.5
20260504185747 63 90 0.0 0.0 0.00 0.00 0.00 55 999.3
20260504185450 63 337 0.0 0.0 0.00 0.00 0.00 54 999.5
20260504185148 64 0 0.0 0.0 0.00 0.00 0.00 53 999.3
20260504184848 64 337 0.0 0.0 0.00 0.00 0.00 53 999.3
20260504184548 64 337 0.0 0.0 0.00 0.00 0.00 53 999.3
20260504184248 65 337 0.0 0.0 0.00 0.00 0.00 53 999.3
20260504183948 65 315 0.0 0.0 0.00 0.00 0.00 52 999.3
20260504183348 65 337 1.0 1.0 0.00 0.00 0.00 51 999.3
20260504183047 65 315 0.0 0.0 0.00 0.00 0.00 52 999.3
20260504182747 65 0 0.0 0.0 0.00 0.00 0.00 51 999.3
20260504182447 66 0 0.0 0.0 0.00 0.00 0.00 50 999.3
20260504182147 66 315 0.0 0.0 0.00 0.00 0.00 51 999.3
20260504181847 66 315 0.0 0.0 0.00 0.00 0.00 50 999.3
20260504181248 67 292 1.0 1.0 0.00 0.00 0.00 49 999.3
20260504180948 67 337 3.0 3.0 0.00 0.00 0.00 50 999.3
20260504180647 67 292 0.0 0.0 0.00 0.00 0.00 49 999.3
20260504180348 67 337 0.0 0.0 0.00 0.00 0.00 49 999.3
20260504180047 67 292 0.0 0.0 0.00 0.00 0.00 48 999.3
20260504175748 67 270 0.0 0.0 0.00 0.00 0.00 48 999.3
20260504175148 67 270 0.0 0.0 0.00 0.00 0.00 48 999.3
20260504174847 68 292 0.0 0.0 0.00 0.00 0.00 48 999.3
20260504174546 68 225 0.0 0.0 0.00 0.00 0.00 48 999.3
20260504174247 68 337 0.0 0.0 0.00 0.00 0.00 48 999.1
20260504173948 68 270 3.0 3.0 0.00 0.00 0.00 47 999.1
20260504173348 68 337 0.0 0.0 0.00 0.00 0.00 47 999.1
20260504173047 69 270 1.0 2.0 0.00 0.00 0.00 48 999.1
20260504172748 69 270 1.0 1.0 0.00 0.00 0.00 49 998.8
20260504172448 69 337 0.0 0.0 0.00 0.00 0.00 49 998.8
20260504172148 69 292 0.0 0.0 0.00 0.00 0.00 49 998.8
20260504171847 68 315 0.0 0.0 0.00 0.00 0.00 48 998.8
20260504170947 70 315 0.0 0.0 0.00 0.00 0.00 47 999.1
20260504170647 70 315 0.0 0.0 0.00 0.00 0.00 48 999.1
20260504170347 70 270 2.0 2.0 0.00 0.00 0.00 47 999.3
20260504160347 73 225 2.0 2.0 0.00 0.00 0.00 44 999.3
20260504150948 74 180 1.0 1.0 0.00 0.00 0.00 41 999.5
20260504150347 75 202 0.0 0.0 0.00 0.00 0.00 40 999.5
20260504141247 75 157 0.0 0.0 0.00 0.00 0.00 40 999.8
20260504140948 76 337 0.0 0.0 0.00 0.00 0.00 40 999.8
20260504140647 75 180 3.0 3.0 0.00 0.00 0.00 40 999.8